This is the latest recevied weather packets stored in our database for station/object KE0FIN. If no packets are shown the sender has not sent any weather packets the latest 10 day(s).
| Time | Temp. | Humidity | Pressure | Rain* | Wind** | Luminosity | Snow |
|---|---|---|---|---|---|---|---|
| 1778015385 | 12.22° C | 70% | 1063.3 hPa | 0 mm | - | 191 W/m² | - |
| 1778015082 | 12.78° C | 71% | 1063.5 hPa | 0 mm | - | 200 W/m² | - |
| 1778014779 | 12.22° C | 73% | 1063.5 hPa | 0 mm | - | 196 W/m² | - |
| 1778014478 | 12.22° C | 74% | 1063.5 hPa | 0 mm | - | 199 W/m² | - |
| 1778014174 | 11.67° C | 75% | 1063.5 hPa | 0 mm | - | 185 W/m² | - |
| 1778013872 | 11.11° C | 76% | 1063.6 hPa | 0 mm | - | 200 W/m² | - |
| 1778013569 | 11.67° C | 75% | 1063.5 hPa | 0 mm | - | 179 W/m² | - |
| 1778013265 | 11.11° C | 77% | 1063.9 hPa | 0 mm | - | 141 W/m² | - |
| 1778012961 | 10.56° C | 77% | 1063.9 hPa | 0 mm | - | 121 W/m² | - |
| 1778012658 | 10.56° C | 78% | 1063.7 hPa | 0 mm | - | 174 W/m² | - |
| 1778012355 | 10.56° C | 77% | 1063.9 hPa | 0 mm | - | 118 W/m² | - |
| 1778012052 | 10.56° C | 77% | 1063.8 hPa | 0 mm | - | 118 W/m² | - |
| 1778011750 | 10° C | 78% | 1063.8 hPa | 0 mm | - | 98 W/m² | - |
| 1778011447 | 10.56° C | 77% | 1063.6 hPa | 0 mm | - | 107 W/m² | - |
| 1778011142 | 10.56° C | 78% | 1063.6 hPa | 0 mm | - | 162 W/m² | - |
| 1778010839 | 10° C | 78% | 1063.9 hPa | 0 mm | - | 129 W/m² | - |
| 1778010536 | 10° C | 78% | 1063.9 hPa | 0 mm | - | 102 W/m² | - |
| 1778010235 | 10° C | 77% | 1063.8 hPa | 0 mm | - | 87 W/m² | - |
| 1778009934 | 10° C | 75% | 1064 hPa | 0 mm | - | 93 W/m² | - |
| 1778009633 | 10° C | 74% | 1063.9 hPa | 0 mm | - | 82 W/m² | - |
| 1778009330 | 10° C | 73% | 1063.6 hPa | 0 mm | - | 83 W/m² | - |
| 1778009028 | 10.56° C | 73% | 1063.7 hPa | 0 mm | - | 105 W/m² | - |
| 1778008725 | 10.56° C | 73% | 1063.8 hPa | 0 mm | - | 132 W/m² | - |
| 1778008424 | 10.56° C | 75% | 1063.9 hPa | 0 mm | - | 164 W/m² | - |
| 1778008120 | 10.56° C | 76% | 1063.8 hPa | 0 mm | - | 122 W/m² | - |
* Rain latest hour (hover to see other rain measurements)
** Current wind speed in m/s (hover to see current wind gust speed)